Niagara Falls, NY

10:01 PM EDT on August 23, 2017 (GMT -0400)
Niagara Falls International

Weather History for KIAG - December, 2012

Change the Weather History Date:

Friday, December 21, 2012

  Actual Average Record
Temperature  
Mean Temperature 37 °F -  
Max Temperature 44 °F 32 °F 54 °F (2011)
Min Temperature 30 °F 21 °F 5 °F (1989)
Degree Days  
Heating Degree Days 28    
Moisture  
Dew Point 31 °F    
Average Humidity 87    
Maximum Humidity 93    
Minimum Humidity 73    
Precipitation  
Precipitation 0.41 in - - ()
Sea Level Pressure  
Sea Level Pressure 29.29 in    
Wind  
Wind Speed 13 mph (West)    
Max Wind Speed 32 mph    
Max Gust Speed 43 mph    
Visibility 6 miles    
Events Rain , Snow    
Averages and records for this station are not official NWS values.
T = Trace of Precipitation, MM = Missing Value Source: NWS Daily Summary

Daily Weather History Graph

Daily Weather History Graph

Search for Another Location

Airport or City:

Trip Planner

Search our weather history database for the weather conditions in past years. The results will help you decide how hot, cold, wet, or windy it might be!

Date:

Astronomy

Dec. 21, 2012 Rise Set
Actual Time 7:44 AM EST 4:43 PM EST
Civil Twilight 7:11 AM EST 5:16 PM EST
Nautical Twilight 6:35 AM EST 5:52 PM EST
Astronomical Twilight 6:01 AM EST 6:27 PM EST
Moon 12:36 PM EST (12/21) 1:22 AM EST (12/21)
Length of Visible Light 10h 04m
Length of Day
8h 59m
Waxing Gibbous, 64% of the Moon is Illuminated
Dec 21
Waxing Gibbous
Dec 28
Full
Jan 4
Last Quarter
Jan 11
New
Jan 18
First Quarter

Hourly Weather History & Observations

Time (EST) Temp. Windchill Dew Point Humidity Pressure Visibility Wind Dir Wind Speed Gust Speed Precip Events Conditions
12:53 AM 44.1 °F 36.5 °F 36.0 °F 73% 29.34 in 9.0 mi South 17.3 mph 25.3 mph 0.01 in Rain Light Rain
1:53 AM 42.1 °F 33.6 °F 37.0 °F 82% 29.37 in 7.0 mi SSW 18.4 mph 26.5 mph 0.05 in Rain Light Rain
2:10 AM 41.0 °F 34.3 °F 37.4 °F 87% 29.33 in 10.0 mi SSW 11.5 mph - 0.00 in Rain Light Rain
2:30 AM 41.0 °F 32.8 °F 37.4 °F 87% 29.33 in 10.0 mi SSW 16.1 mph 19.6 mph 0.01 in Rain Light Rain
2:37 AM 41.0 °F 32.2 °F 35.6 °F 81% 29.33 in 10.0 mi SSW 18.4 mph 26.5 mph 0.01 in Rain Light Rain
2:53 AM 41.0 °F 32.2 °F 36.0 °F 82% 29.35 in 10.0 mi SSW 18.4 mph 26.5 mph 0.01 in Rain Light Rain
3:31 AM 39.2 °F 31.2 °F 35.6 °F 87% 29.31 in 8.0 mi SW 13.8 mph 23.0 mph 0.03 in Rain Light Rain
3:53 AM 39.0 °F 32.8 °F 36.0 °F 89% 29.35 in 10.0 mi SW 9.2 mph - 0.04 in Rain Light Rain
4:31 AM 37.4 °F 30.3 °F 33.8 °F 87% 29.30 in 9.0 mi WSW 10.4 mph - 0.03 in Rain Light Rain
4:41 AM 37.4 °F 31.4 °F 35.6 °F 93% 29.30 in 10.0 mi WSW 8.1 mph - 0.03 in Rain Light Rain
4:53 AM 37.9 °F 30.5 °F 34.0 °F 86% 29.34 in 8.0 mi WSW 11.5 mph - 0.04 in Rain Light Rain
5:34 AM 37.4 °F 33.8 °F 35.6 °F 93% 29.29 in 9.0 mi WSW 4.6 mph - 0.01 in Rain Light Rain
5:53 AM 35.1 °F 27.4 °F 32.0 °F 89% 29.33 in 4.0 mi WSW 10.4 mph - 0.04 in Rain Rain
6:45 AM 33.8 °F 26.4 °F 32.0 °F 93% 29.29 in 7.0 mi WSW 9.2 mph - 0.04 in Snow Light Snow
6:53 AM 34.0 °F 28.0 °F 30.9 °F 89% 29.33 in 9.0 mi West 6.9 mph - 0.04 in Snow Light Snow
7:00 AM 33.8 °F 27.7 °F 30.2 °F 87% 29.29 in 7.0 mi WSW 6.9 mph - 0.01 in Rain , Snow Light Rain
7:17 AM 33.8 °F 30.8 °F 32.0 °F 93% 29.28 in 7.0 mi SW 3.5 mph - 0.01 in Rain Light Rain
7:53 AM 35.1 °F 27.9 °F 30.9 °F 85% 29.31 in 7.0 mi SW 9.2 mph - 0.01 in Rain Light Rain
8:13 AM 35.6 °F 27.5 °F 30.2 °F 81% 29.27 in 10.0 mi SW 11.5 mph - 0.00 in   Overcast
8:53 AM 36.0 °F 28.5 °F 28.9 °F 76% 29.29 in 10.0 mi SW 10.4 mph 16.1 mph 0.00 in   Overcast
9:53 AM 36.0 °F 28.0 °F 30.0 °F 79% 29.29 in 10.0 mi WSW 11.5 mph - N/A   Overcast
10:05 AM 35.6 °F 28.6 °F 30.2 °F 81% 29.25 in 10.0 mi SW 9.2 mph - N/A   Overcast
10:25 AM 35.6 °F 27.1 °F 30.2 °F 81% 29.25 in 10.0 mi SW 12.7 mph - 0.00 in Rain Light Rain
10:53 AM 35.1 °F 27.9 °F 30.9 °F 85% 29.28 in 4.0 mi SW 9.2 mph - 0.00 in Snow Light Snow
11:00 AM 35.6 °F 28.6 °F 30.2 °F 81% 29.25 in 2.0 mi WSW 9.2 mph - 0.00 in Snow Light Snow
11:31 AM 33.8 °F 27.7 °F 32.0 °F 93% 29.23 in 1.8 mi SW 6.9 mph - 0.01 in Snow Light Snow
11:40 AM 33.8 °F 27.0 °F 30.2 °F 87% 29.23 in 1.2 mi SW 8.1 mph - 0.02 in Snow Light Snow
11:51 AM 33.8 °F 27.0 °F 30.2 °F 87% 29.23 in 1.2 mi SW 8.1 mph - 0.03 in Snow Light Snow
11:53 AM 33.1 °F 25.5 °F 30.9 °F 92% 29.26 in 1.2 mi SW 9.2 mph - 0.03 in Snow Light Snow
12:06 PM 33.8 °F 26.4 °F 30.2 °F 87% 29.22 in 2.0 mi SW 9.2 mph - 0.00 in Snow Light Snow
12:41 PM 33.8 °F 27.7 °F 32.0 °F 93% 29.22 in 1.8 mi WSW 6.9 mph - 0.01 in Snow Light Snow
12:53 PM 34.0 °F 28.8 °F 32.0 °F 92% 29.25 in 1.8 mi West 5.8 mph - 0.02 in Snow Light Snow
1:04 PM 35.6 °F 29.9 °F 32.0 °F 87% 29.21 in 2.0 mi West 6.9 mph - 0.00 in Snow Light Snow
1:15 PM 35.6 °F 28.6 °F 32.0 °F 87% 29.21 in 3.0 mi West 9.2 mph - 0.01 in Rain , Snow Light Rain
1:53 PM 35.1 °F 29.3 °F 33.1 °F 92% 29.24 in 7.0 mi West 6.9 mph - 0.01 in Rain Light Rain
2:26 PM 35.6 °F 29.2 °F 33.8 °F 93% 29.21 in 7.0 mi West 8.1 mph - 0.00 in Rain Light Rain
2:48 PM 33.8 °F 26.4 °F 32.0 °F 93% 29.21 in 2.0 mi NW 9.2 mph - 0.00 in Rain , Snow Light Rain
2:53 PM 34.0 °F 26.6 °F 30.9 °F 89% 29.24 in 2.0 mi NW 9.2 mph - 0.01 in Rain , Snow Light Rain
3:06 PM 33.8 °F 26.4 °F 32.0 °F 93% 29.21 in 10.0 mi WNW 9.2 mph - 0.00 in Rain , Snow Light Rain
3:53 PM 35.1 °F 27.4 °F 32.0 °F 89% 29.26 in 10.0 mi NW 10.4 mph - 0.00 in   Light Drizzle
4:12 PM 35.6 °F 27.1 °F 32.0 °F 87% 29.23 in 10.0 mi WNW 12.7 mph - 0.00 in Rain Light Rain
4:42 PM 33.8 °F 25.8 °F 30.2 °F 87% 29.23 in 10.0 mi West 10.4 mph - 0.00 in Rain , Snow Light Rain
4:53 PM 34.0 °F 26.0 °F 30.9 °F 89% 29.27 in 10.0 mi WNW 10.4 mph - 0.00 in Rain , Snow Light Rain
5:27 PM 33.8 °F 26.4 °F 30.2 °F 87% 29.25 in 5.0 mi West 9.2 mph - 0.01 in Rain , Snow Light Rain
5:41 PM 33.8 °F 25.8 °F 30.2 °F 87% 29.25 in 3.0 mi West 10.4 mph - 0.02 in Rain , Snow Light Snow
5:53 PM 33.1 °F 24.9 °F 30.9 °F 92% 29.29 in 3.0 mi West 10.4 mph - 0.03 in Rain , Snow Light Snow
6:29 PM 33.8 °F 23.2 °F 30.2 °F 87% 29.25 in 2.5 mi West 17.3 mph - 0.00 in Snow Light Snow
6:39 PM 33.8 °F 23.2 °F 30.2 °F 87% 29.26 in 1.8 mi West 17.3 mph - 0.01 in Snow Light Snow
6:53 PM 33.1 °F 21.5 °F 30.0 °F 89% 29.30 in 1.8 mi West 19.6 mph 25.3 mph 0.01 in Snow Light Snow
7:53 PM 33.1 °F 21.5 °F 30.0 °F 89% 29.33 in 1.0 mi WNW 19.6 mph 29.9 mph 0.03 in Snow Light Snow
8:19 PM 33.8 °F 22.2 °F 28.4 °F 81% 29.31 in 1.5 mi NW 20.7 mph 34.5 mph 0.01 in Snow Light Snow
8:37 PM 32.0 °F 18.6 °F 30.2 °F 93% 29.32 in 1.0 mi NW 25.3 mph 32.2 mph 0.02 in Snow Light Snow
8:53 PM 32.0 °F 20.5 °F 28.9 °F 88% 29.37 in 1.0 mi WNW 18.4 mph 26.5 mph 0.02 in Snow Light Snow
9:07 PM 30.2 °F 17.1 °F 28.4 °F 93% 29.33 in 1.0 mi NW 21.9 mph 32.2 mph 0.00 in Snow Light Snow
9:22 PM 30.2 °F 18.1 °F 28.4 °F 93% 29.34 in 3.0 mi WNW 18.4 mph 25.3 mph 0.01 in Snow Light Snow
9:35 PM 32.0 °F 19.2 °F 26.6 °F 80% 29.35 in 8.0 mi NNW 23.0 mph 36.8 mph 0.01 in Snow Light Snow
9:53 PM 32.0 °F 19.2 °F 27.0 °F 82% 29.39 in 10.0 mi NW 23.0 mph 31.1 mph 0.01 in Snow Light Snow
10:15 PM 32.0 °F 17.2 °F 24.8 °F 75% 29.37 in 10.0 mi NW 32.2 mph 42.6 mph 0.00 in   Overcast
10:53 PM 30.9 °F 18.1 °F 25.0 °F 79% 29.43 in 10.0 mi NW 21.9 mph 40.3 mph 0.00 in   Overcast
11:53 PM 30.9 °F 16.9 °F 24.1 °F 76% 29.46 in 10.0 mi NW 26.5 mph 41.4 mph N/A   Overcast